Погода в Витебске

Поиск расширенной информации на нашем сайте:

Полезная информация:

Новости сайта



02.01.2020
Опубликован Долгосрочный прогноз погоды по городам России и ближнего зарубежья на январь 2020 года.
Карты: Прогноз на январь и февраль 2020 года, Сравнение прогнозируемой аномалии приземной температуры воздуха на январь 2020 года по разным моделям.




Погода в Витебске - сегодня

Время (UTC), дата Ветер
(°,м/с) 
Видим.   Явления Облачность Т
(°С)
Тd
(°С)
f(%) Тe
(°С)
Pmin
(гПа)
dP
(гПа)
Po
(мм)
O2
(г/м3)
Тmin Tmax R s Состояние
почвы
12 09.08.20 030 (СВ) 30000 м    4/3 1000 м верхняя 
[Cu med, cong|Ci fib]
+27.5 +15.8 49 +38  1018.3  -1  749  271           
15 09.08.20 070 (В) 9000 м  гроза, ливневой дождь  8/6 1000 м кучево-дожд., средняя, верхняя 
[Cb cap|Ac trans|Ci fib]
+22.8 +16.6 68 +34  1017.9  -0.7  748  275      0.0     
18 09.08.20 тихо ()   35000 м  в посл. час ливневой дождь{гроза}  8/5 1000 м средняя, верхняя 
[Sc|Ac trans|Ci fib]
+20.4 +16.8 80 +32  1018.1  748  277    +28.7  0.0     
21 09.08.20 тихо ()   14000 м    8/6 270 м средняя 
[St|Ac trans]
+17.6 +16.6 94 +29  1018.4  748  280           
00 10.08.20 тихо ()   19000 м    8/6 240 м средняя 
[St|Ac trans]
+17 +16.7 98 +29  1018.3  -0.1  748  280           
03 10.08.20 тихо ()   25000 м    6/0 средняя, верхняя 
[Ac trans|Cs]
+15.8 +15.6 99 +26  1018.4  748  282           
06 10.08.20 тихо ()   19000 м    8/0 верхняя 
[Cs]
+21.6 +16.1 71 +32  1017.9  748  276  +15.6         
09 10.08.20 340 (С) 27000 м    9/5 1000 м верхняя 
[Cu med, cong|Ci fib]
+26.5 +16.4 54 +38  1017  -0.5  748  271           
12 10.08.20 200 (Ю) 24000 м  в посл. час гроза  6/6 960 м кучево-дожд. 
[Cb cap]
+24.1 +16.1 61 +35  1015.9  -1.3  747  273           
15 10.08.20 320 (СЗ) 30000 м  гроза без осадков  8/8 900 м кучево-дожд., верхняя 
[Cb cap|Ci ing]
+27 +15.1 48 +36  1014.8  -0.8  746  271           
18 10.08.20 220 (ЮЗ) 35000 м  в посл. час гроза{ливн. осадки}  9/8 1200 м верхняя 
[Sc diur, vesp|Ci sp]
+18.7 +16.3 86 +31  1016.1  0.6  747  278    +28.8     
21 10.08.20 тихо ()   30000 м  {ливн. осадки}  6/0 средняя 
[Ac trans]
+18 +15.4 85 +27  1016.3  0.1  747  279      0.0     
00 11.08.20 тихо ()   21000 м  {ливн. осадки}  3/0 средняя 
[Ac trans]
+15.3 +15.1 99 +24  1016.8  0.3  747  282           
03 11.08.20 тихо ()   16000 м    8/3 300 м средняя 
[St|Ac cast]
+13.9 +13.7 99 +21  1017  0.1  747  284      0.0     
06 11.08.20 010 (С) 20000 м  {ливн. осадки}  8/6 300 м средняя 
[St|Ac trans]
+15.9 +14.8 93 +24  1017.9  748  282  +13.9    0.0     
09 11.08.20 010 (С) 35000 м    6/6 1170 м 
[Cu med, cong]
+17.9 +11.2 65 +21  1018.4  0.7  748  281           
12 11.08.20 010 (С) 4{10}  35000 м    9/8 1300 м верхняя 
[Sc|Ci fib]
+17.2 +9.1 59 +17  1019.1  0.6  749  282           
15 11.08.20 340 (С) 35000 м    9/9 1470 м 
[Sc]
+16.8 +10.4 66 +19  1018.9  -0.2  749  282           
18 11.08.20 340 (С) 35000 м    8/5 1000 м средняя 
[Sc|Ac trans]
+13 +10.4 84 +16  1019.1  -0.1  749  286    +20.6       
21 11.08.20 350 (С) 27000 м    9/0 средняя 
[Ac As]
+13.3 +10.8 85 +17  1019.2  0.1  749  286           
00 12.08.20 330 (СЗ) 30000 м    9/9 1140 м 
[Sc]
+12.3 +10.4 88 +15  1019.4  0.1  749  287           
03 12.08.20 320 (СЗ) 35000 м    10/10 270 м 
[St]
+11.9 +10.5 91 +15  1019.2  -0.2  749  287           
06 12.08.20 350 (С) 30000 м  в посл. час морось  10/10 400 м 
[St]
+13 +11.1 88 +16  1019.6  0.5  749  286  +11.3    0.0     
09 12.08.20 350 (С) 30000 м    8/8 870 м 
[Sc]
+16.1 +11.1 72 +19  1019.6  0.2  749  283           
12 12.08.20 330 (СЗ) 35000 м    9/3 600 м средняя 
[Sc|Ac As]
+16.3 +10.4 68 +19  1019.6  749  283           
Время (UTC), дата Ветер
(°,м/с) 
Видим.   Явления Облачность Т
(°С)
Тd
(°С)
f(%) Тe
(°С)
Pmin
(гПа)
dP
(гПа)
Po
(мм)
O2
(г/м3)
Тmin Tmax R s Состояние
почвы

Для получения пояснительной информации подведите курсор к названию столбца.

ПОГОДА в Витебске - архив

Всё, что Вы хотите узнать о погоде в Витебске - удобно и подробно!

Выберите нужную дату (начиная с 1 января 2019* года) и нажмите кнопку "Найти".
Будут отображены архивные сводки погоды по пункту Витебск, начиная с указанной даты.


Отображать данные в формате CSV (для использования в таблицах Excel)


Внимание! Наш архив погоды предназначен исключительно для личного некоммерческого использования в познавательных целях. Если Вам необходимы официальные справки о состоянии погоды (для производственных, юридических, коммерческих и т.п. целей), обращайтесь в органы Росгидромета.

*Примечание: данная дата относится к архиву по метеостанциям СССР (Россия, СНГ, Балтия).
Архив по метеостанциям Зарубежной Европы и Азии (кроме Китая) хранится 10 дней, по другим регионам земного шара (Китай, Африка, Америка, Австралия, Океания) - 1 день.

Витебск - район местоположения метеостанции


Название, широта, долгота, высота метеостанции:
Витебск (город) 55.1°ш. 30.3°д. 170 м над ур. моря [Беларусь]

Дополнительная информация

В oтличие oт бoльшинства пoгoдных сайтoв мы публикуем пoдрoбную метеoинфoрмацию в детальнoм прoфессиoнальнoм фoрмате.

Характеристики температуры и влажнoсти вoздуха измеряются на высoте 2 м в тени вдали oт зданий и деревьев.
Скoрoсть ветра измеряется на высoте 10 м (на урoвне рoста челoвека скoрoсть ветра ниже в 1.5-2 раза). Если метеoстанция нахoдится в гoрoде или в лесу, тo скoрoсть ветра занижена на 2-4 м/с пo сравнению с oткрытым местoм. Скoрoсть ветра над акватoриями крупных рек и oзёр, а также на вершинах хoлмoв на 2-5 м/с выше, чем в oбычных услoвиях.
Атмoсфернoе давление в разных тoчках местнoсти мoжет значительнo oтличаться oт давления на метеoстанции, в зависимoсти oт услoвий рельефа (при пoдъёме на 10 м давление пoнижается примернo на 1 мм рт.ст.).